STARLINK-1940 (47552 NORAD) Tracking and Keplerian Element Data

This shows tracking and keplerian element data for the satellite.

Feedback or suggestion? Click here.




ElementValue
Catalog47552
NameSTARLINK-1940
Epoch Orbit182
Epoch Day99.91667824
Epoch Year2021
RAAN167.321
Inclination53.0522
Eccentricity0.0003888
Argument of Perigee1.6525
Mean Anonmoly148.2636
Mean Motion15.62715904
Decay Rate0.00020197
L11 47552U 21009E 21099.91667824 .00020197 00000-0 22615-3 0 9997
L22 47552 53.0522 167.3210 0003888 1.6525 148.2636 15.62715904 1829

Live tracking and technical data element details for STARLINK-1940 (NORAD 47552). STARLINK-1940 can be tracked NOW for your location showing map with azimuth and elevation plus other details from your city location.

Track the satellite on the map from your city or location and see movement details for azimuth, elevation, latitude, longitude, range, height, and movement on the map or in text.







IsCatalogInMostPopularTable: catalog: 47552, numindb: 16
Update: records affected: 1



GetName: 47552 STARLINK-1940

Hit Count: updated at: Sat, 10 Apr 2021 18:46:44 GMT